• In Romania
  • List of Countries
  • For 7 days
  • Water Temperature
  • Satellite Maps
  • Weather Map
  • Weather Widgets
  • user-avatar
    Login

    Hourly Weather Pomorie

    Today, 18 October, Wednesday

    Time Temperature Precipitation Wind Pressure Humidity
    00:00 +19°C° 0 mm 1 mps 768 mmHg 55%
    01:00 +18°C° 0 mm 1 mps 768 mmHg 55%
    02:00 +16°C° 0 mm 0 mps 768 mmHg 58%
    03:00 +16°C° 0 mm 0 mps 768 mmHg 59%
    04:00 +15°C° 0 mm 0 mps 767 mmHg 60%
    05:00 +15°C° 0 mm 0 mps 767 mmHg 60%
    06:00 +16°C° 0 mm 0 mps 767 mmHg 58%
    07:00 +17°C° 0 mm 0 mps 767 mmHg 56%
    08:00 +20°C° 0 mm 1 mps 767 mmHg 50%
    09:00 +22°C° 0 mm 1 mps 767 mmHg 45%
    10:00 +24°C° 0 mm 1 mps 767 mmHg 39%
    11:00 +26°C° 0 mm 1 mps 766 mmHg 33%
    12:00 +27°C° 0 mm 1 mps 766 mmHg 31%
    13:00 +27°C° 0 mm 2 mps 766 mmHg 29%
    14:00 +28°C° 0 mm 2 mps 766 mmHg 28%
    15:00 +26°C° 0 mm 2 mps 765 mmHg 33%
    16:00 +25°C° 0 mm 2 mps 765 mmHg 38%
    17:00 +23°C° 0 mm 2 mps 765 mmHg 44%
    18:00 +21°C° 0 mm 2 mps 765 mmHg 48%
    19:00 +19°C° 0 mm 2 mps 765 mmHg 52%
    20:00 +18°C° 0 mm 2 mps 765 mmHg 56%
    21:00 +18°C° 0 mm 1 mps 765 mmHg 56%
    22:00 +18°C° 0 mm 1 mps 765 mmHg 57%
    23:00 +18°C° 0 mm 1 mps 764 mmHg 58%

    Tomorrow, 19 October, Thursday

    Time Temperature Precipitation Wind Pressure Humidity
    00:00 +16°C° 0 mm 1 mps 764 mmHg 59%
    01:00 +16°C° 0 mm 1 mps 764 mmHg 59%
    02:00 +16°C° 0 mm 1 mps 764 mmHg 59%
    03:00 +15°C° 0 mm 1 mps 764 mmHg 59%
    04:00 +14°C° 0 mm 0 mps 764 mmHg 59%
    05:00 +14°C° 0 mm 0 mps 763 mmHg 58%
    06:00 +15°C° 0 mm 0 mps 763 mmHg 56%
    07:00 +18°C° 0 mm 1 mps 763 mmHg 54%
    08:00 +19°C° 0 mm 1 mps 764 mmHg 51%
    09:00 +21°C° 0 mm 1 mps 764 mmHg 45%
    10:00 +23°C° 0 mm 1 mps 763 mmHg 39%
    11:00 +26°C° 0 mm 1 mps 763 mmHg 32%
    12:00 +26°C° 0 mm 1 mps 763 mmHg 31%
    13:00 +27°C° 0 mm 2 mps 763 mmHg 29%
    14:00 +28°C° 0 mm 2 mps 763 mmHg 28%
    15:00 +26°C° 0 mm 2 mps 762 mmHg 33%
    16:00 +25°C° 0 mm 2 mps 762 mmHg 39%
    17:00 +23°C° 0 mm 2 mps 762 mmHg 44%
    18:00 +21°C° 0 mm 2 mps 762 mmHg 49%
    19:00 +20°C° 0 mm 2 mps 763 mmHg 54%
    20:00 +18°C° 0 mm 2 mps 763 mmHg 60%
    21:00 +18°C° 0 mm 2 mps 763 mmHg 61%
    22:00 +18°C° 0 mm 2 mps 763 mmHg 62%
    23:00 +18°C° 0 mm 1 mps 763 mmHg 64%

    Day after tomorrow, 20 October, Friday

    Time Temperature Precipitation Wind Pressure Humidity
    00:00 +18°C° 0 mm 1 mps 763 mmHg 63%
    01:00 +18°C° 0 mm 1 mps 763 mmHg 63%
    02:00 +16°C° 0 mm 1 mps 763 mmHg 63%
    03:00 +16°C° 0 mm 1 mps 762 mmHg 62%
    04:00 +16°C° 0 mm 1 mps 762 mmHg 61%
    05:00 +16°C° 0 mm 1 mps 762 mmHg 60%
    06:00 +16°C° 0 mm 1 mps 762 mmHg 58%
    07:00 +18°C° 0 mm 1 mps 763 mmHg 55%
    08:00 +19°C° 0 mm 1 mps 763 mmHg 53%
    09:00 +21°C° 0 mm 1 mps 763 mmHg 46%
    10:00 +24°C° 0 mm 1 mps 763 mmHg 40%
    11:00 +26°C° 0 mm 1 mps 763 mmHg 34%
    12:00 +27°C° 0 mm 1 mps 763 mmHg 32%
    13:00 +27°C° 0 mm 1 mps 763 mmHg 30%
    14:00 +28°C° 0 mm 1 mps 762 mmHg 28%
    15:00 +27°C° 0 mm 1 mps 762 mmHg 32%
    16:00 +25°C° 0 mm 2 mps 762 mmHg 36%
    17:00 +24°C° 0 mm 2 mps 762 mmHg 40%
    18:00 +23°C° 0 mm 2 mps 762 mmHg 44%
    19:00 +20°C° 0 mm 2 mps 763 mmHg 47%
    20:00 +20°C° 0 mm 1 mps 763 mmHg 50%
    21:00 +20°C° 0 mm 1 mps 763 mmHg 51%
    22:00 +20°C° 0 mm 1 mps 763 mmHg 52%
    23:00 +19°C° 0 mm 1 mps 763 mmHg 53%

    21 October, Saturday

    Time Temperature Precipitation Wind Pressure Humidity
    00:00 +19°C° 0 mm 1 mps 763 mmHg 54%
    01:00 +19°C° 0 mm 1 mps 763 mmHg 55%
    02:00 +18°C° 0 mm 1 mps 763 mmHg 57%
    03:00 +18°C° 0 mm 1 mps 763 mmHg 58%
    04:00 +18°C° 0 mm 1 mps 763 mmHg 59%
    05:00 +16°C° 0 mm 2 mps 763 mmHg 61%
    06:00 +17°C° 0 mm 2 mps 763 mmHg 60%
    07:00 +17°C° 0 mm 2 mps 764 mmHg 59%
    08:00 +18°C° 0 mm 2 mps 764 mmHg 58%
    09:00 +20°C° 0 mm 2 mps 764 mmHg 53%
    10:00 +22°C° 0 mm 3 mps 764 mmHg 47%
    11:00 +25°C° 0 mm 3 mps 764 mmHg 42%
    12:00 +25°C° 0 mm 3 mps 764 mmHg 41%
    13:00 +26°C° 0 mm 3 mps 764 mmHg 39%
    14:00 +26°C° 0 mm 3 mps 763 mmHg 38%
    15:00 +25°C° 0 mm 4 mps 763 mmHg 44%
    16:00 +22°C° 0 mm 4 mps 763 mmHg 50%
    17:00 +21°C° 0 mm 4 mps 763 mmHg 56%
    18:00 +20°C° 0 mm 4 mps 764 mmHg 65%
    19:00 +18°C° 0 mm 4 mps 764 mmHg 74%
    20:00 +17°C° 0 mm 4 mps 764 mmHg 83%
    21:00 +15°C° 0 mm 4 mps 764 mmHg 87%
    22:00 +16°C° 0 mm 3 mps 765 mmHg 91%
    23:00 +16°C° 0 mm 3 mps 765 mmHg 94%

    22 October, Sunday

    Time Temperature Precipitation Wind Pressure Humidity
    00:00 +16°C° 0 mm 3 mps 765 mmHg 94%
    01:00 +15°C° 0 mm 4 mps 765 mmHg 94%
    02:00 +15°C° 0 mm 4 mps 765 mmHg 94%
    03:00 +15°C° 0 mm 4 mps 765 mmHg 93%
    04:00 +15°C° 0 mm 4 mps 765 mmHg 93%
    05:00 +16°C° 0 mm 3 mps 765 mmHg 92%
    06:00 +16°C° 0 mm 3 mps 765 mmHg 90%
    07:00 +16°C° 0 mm 3 mps 765 mmHg 88%
    08:00 +16°C° 0 mm 3 mps 765 mmHg 86%
    09:00 +18°C° 0 mm 3 mps 765 mmHg 79%
    10:00 +19°C° 0 mm 3 mps 764 mmHg 72%
    11:00 +20°C° 0 mm 3 mps 764 mmHg 65%
    12:00 +21°C° 0 mm 3 mps 764 mmHg 61%
    13:00 +21°C° 0 mm 4 mps 763 mmHg 58%
    14:00 +22°C° 0 mm 4 mps 763 mmHg 54%
    15:00 +21°C° 0 mm 4 mps 763 mmHg 60%
    16:00 +20°C° 0 mm 4 mps 762 mmHg 66%
    17:00 +19°C° 0 mm 3 mps 762 mmHg 72%
    18:00 +17°C° 0 mm 3 mps 762 mmHg 79%
    19:00 +16°C° 0 mm 3 mps 763 mmHg 87%
    20:00 +14°C° 0 mm 3 mps 763 mmHg 94%
    21:00 +14°C° 0 mm 3 mps 762 mmHg 95%
    22:00 +14°C° 0 mm 3 mps 762 mmHg 96%
    23:00 +14°C° 0 mm 3 mps 762 mmHg 97%

    23 October, Monday

    Time Temperature Precipitation Wind Pressure Humidity
    00:00 +14°C° 0 mm 3 mps 762 mmHg 96%
    01:00 +15°C° 0 mm 2 mps 761 mmHg 96%
    02:00 +15°C° 0 mm 2 mps 761 mmHg 96%
    03:00 +14°C° 0 mm 3 mps 761 mmHg 95%
    04:00 +14°C° 0 mm 3 mps 761 mmHg 95%
    05:00 +14°C° 0 mm 3 mps 761 mmHg 95%
    06:00 +14°C° 0 mm 3 mps 760 mmHg 93%
    07:00 +16°C° 0 mm 3 mps 760 mmHg 90%
    08:00 +16°C° 0 mm 3 mps 760 mmHg 87%
    09:00 +17°C° 0 mm 4 mps 760 mmHg 80%
    10:00 +18°C° 0 mm 4 mps 760 mmHg 73%
    11:00 +19°C° 0 mm 4 mps 760 mmHg 66%
    12:00 +19°C° 0 mm 4 mps 759 mmHg 65%
    13:00 +19°C° 0 mm 5 mps 759 mmHg 64%
    14:00 +20°C° 0 mm 5 mps 759 mmHg 63%
    15:00 +19°C° 0 mm 5 mps 759 mmHg 67%
    16:00 +17°C° 0 mm 5 mps 759 mmHg 72%
    17:00 +16°C° 0 mm 5 mps 759 mmHg 76%
    18:00 +16°C° 0 mm 5 mps 759 mmHg 80%
    19:00 +15°C° 0 mm 5 mps 759 mmHg 84%
    20:00 +14°C° 0 mm 5 mps 759 mmHg 88%
    21:00 +14°C° 0 mm 5 mps 759 mmHg 88%
    22:00 +14°C° 0 mm 5 mps 759 mmHg 88%
    23:00 +14°C° 0 mm 5 mps 759 mmHg 89%
    Show more